Weather History for Orange, MA

Change the Weather History Date:

Saturday, October 6, 2012

  Actual Average Record
Temperature  
Mean Temperature 58 °F -  
Max Temperature 73 °F 61 °F 82 °F (2007)
Min Temperature 44 °F 37 °F 26 °F (1996)
Degree Days  
Heating Degree Days 6    
Growing Degree Days 8 (Base 50)    
Moisture  
Dew Point 52 °F    
Average Humidity 90    
Maximum Humidity 100    
Minimum Humidity 55    
Precipitation  
Precipitation 0.09 in - - ()
Sea Level Pressure  
Sea Level Pressure 29.85 in    
Wind  
Wind Speed 2 mph (WSW)    
Max Wind Speed 18 mph    
Max Gust Speed 29 mph    
Visibility 4 miles    
Events Fog , Rain    
Averages and records for this station are not official NWS values.
T = Trace of Precipitation, MM = Missing Value Source: NWS Daily Summary

Daily Weather History Graph

Daily Weather History Graph

Search for Another Location

Airport:

Trip Planner

Search our weather history database for the weather conditions in past years. The results will help you decide how hot, cold, wet, or windy it might be!

Date:

Astronomy

Oct. 06, 2012 Rise Set
Actual Time 6:52 AM EDT 6:21 PM EDT
Civil Twilight 6:24 AM EDT 6:49 PM EDT
Nautical Twilight 5:51 AM EDT 7:21 PM EDT
Astronomical Twilight 5:18 AM EDT 7:54 PM EDT
Moon 10:28 PM EDT (10/6) 12:50 PM EDT (10/6)
Length of Visible Light 12h 25m
Length of Day
11h 28m
Waning Gibbous, 65% of the Moon is Illuminated
Oct 6
Waning Gibbous
Oct 8
Last Quarter
Oct 15
New
Oct 21
First Quarter
Oct 29
Full

Hourly Weather History & Observations

Time (EDT) Temp. Windchill Dew Point Humidity Pressure Visibility Wind Dir Wind Speed Gust Speed Precip Events Conditions
12:00 AM 55.4 °F - 55.4 °F 100% 29.92 in 1.8 mi Calm Calm - N/A   Overcast
12:02 AM 55.4 °F - 55.4 °F 100% 29.92 in 1.0 mi Calm Calm - N/A   Overcast
12:11 AM 55.4 °F - 55.4 °F 100% 29.92 in 1.5 mi Calm Calm - N/A   Overcast
12:52 AM 55.0 °F - 55.0 °F 100% 29.91 in 4.0 mi Calm Calm - N/A   Clear
1:09 AM 55.4 °F - 53.6 °F 94% 29.91 in 2.0 mi Calm Calm - N/A   Scattered Clouds
1:20 AM 55.4 °F - 53.6 °F 94% 29.90 in 3.0 mi Calm Calm - N/A   Mostly Cloudy
1:52 AM 54.0 °F - 53.1 °F 97% 29.89 in 1.8 mi Calm Calm - N/A   Clear
2:03 AM 53.6 °F - 53.6 °F 100% 29.88 in 3.0 mi SSW 3.5 mph - N/A   Clear
2:11 AM 53.6 °F - 53.6 °F 100% 29.88 in 2.5 mi Calm Calm - N/A   Partly Cloudy
2:19 AM 53.6 °F - 53.6 °F 100% 29.88 in 1.5 mi Calm Calm - N/A   Scattered Clouds
2:21 AM 53.6 °F - 53.6 °F 100% 29.88 in 1.0 mi Calm Calm - N/A   Mist
2:29 AM 53.6 °F - 53.6 °F 100% 29.88 in 0.5 mi Calm Calm - N/A Fog Fog
2:36 AM 53.6 °F - 53.6 °F 100% 29.88 in 1.2 mi Calm Calm - N/A   Mostly Cloudy
2:52 AM 53.1 °F - 52.0 °F 96% 29.87 in 1.5 mi Calm Calm - N/A   Overcast
2:58 AM 53.6 °F - 51.8 °F 94% 29.87 in 3.0 mi Calm Calm - N/A   Overcast
3:04 AM 51.8 °F - 51.8 °F 100% 29.87 in 1.8 mi Calm Calm - N/A   Overcast
3:07 AM 51.8 °F - 51.8 °F 100% 29.87 in 0.8 mi Calm Calm - N/A   Mist
3:24 AM 51.8 °F - 51.8 °F 100% 29.87 in 0.5 mi Calm Calm - N/A Fog Fog
3:52 AM 52.0 °F - 52.0 °F 100% 29.87 in 0.8 mi Calm Calm - N/A   Mist
4:52 AM 51.1 °F - 51.1 °F 100% 29.85 in 0.5 mi Calm Calm - N/A Fog Fog
5:52 AM 51.1 °F - 50.0 °F 96% 29.84 in 0.8 mi Calm Calm - N/A   Mist
6:03 AM 50.0 °F - 50.0 °F 100% 29.84 in 0.5 mi Calm Calm - N/A Fog Fog
6:13 AM 50.0 °F - 50.0 °F 100% 29.84 in 0.5 mi Calm Calm - N/A Fog Fog
6:26 AM 50.0 °F - 50.0 °F 100% 29.84 in 1.2 mi Calm Calm - N/A   Overcast
6:34 AM 50.0 °F - 48.2 °F 94% 29.83 in 1.8 mi Calm Calm - N/A   Overcast
6:46 AM 50.0 °F - 48.2 °F 94% 29.83 in 1.0 mi Calm Calm - N/A   Mist
6:49 AM 50.0 °F - 48.2 °F 94% 29.83 in 0.8 mi Calm Calm - N/A   Mist
6:52 AM 50.0 °F - 48.9 °F 96% 29.83 in 0.5 mi Calm Calm - N/A Fog Fog
7:02 AM 50.0 °F - 48.2 °F 94% 29.83 in 0.2 mi Calm Calm - N/A Fog Fog
8:13 AM 53.6 °F - 51.8 °F 94% 29.82 in 1.0 mi Calm Calm - N/A   Mist
8:15 AM 53.6 °F - 53.6 °F 100% 29.82 in 1.5 mi Calm Calm - N/A   Mostly Cloudy
8:21 AM 53.6 °F - 53.6 °F 100% 29.82 in 3.0 mi Calm Calm - N/A   Scattered Clouds
8:52 AM 59.0 °F - 57.9 °F 96% 29.82 in 6.0 mi Calm Calm - N/A   Clear
9:52 AM 66.9 °F - 57.9 °F 73% 29.80 in 10.0 mi South 12.7 mph - N/A   Clear
10:52 AM 70.0 °F - 57.9 °F 65% 29.78 in 10.0 mi South 13.8 mph - N/A   Clear
11:52 AM 72.0 °F - 57.0 °F 59% 29.75 in 10.0 mi South 12.7 mph 20.7 mph N/A   Clear
12:52 PM 73.9 °F - 57.0 °F 55% 29.72 in 10.0 mi South 17.3 mph 26.5 mph N/A   Clear
1:52 PM 73.9 °F - 57.9 °F 57% 29.70 in 10.0 mi South 13.8 mph 21.9 mph N/A   Mostly Cloudy
2:52 PM 72.0 °F - 57.9 °F 61% 29.70 in 10.0 mi SW 12.7 mph 18.4 mph N/A   Overcast
3:52 PM 59.0 °F - 53.1 °F 81% 29.76 in 8.0 mi WNW 18.4 mph 28.8 mph 0.08 in Rain Light Rain
4:52 PM 57.0 °F - 50.0 °F 77% 29.79 in 10.0 mi NW 9.2 mph - 0.00 in Rain Light Rain
5:52 PM 55.9 °F - 48.9 °F 77% 29.82 in 10.0 mi West 3.5 mph - 0.01 in   Overcast
6:52 PM 55.0 °F - 46.9 °F 74% 29.84 in 10.0 mi West 3.5 mph - N/A   Scattered Clouds
7:52 PM 53.1 °F - 46.0 °F 77% 29.88 in 10.0 mi WNW 5.8 mph - N/A   Scattered Clouds
8:52 PM 52.0 °F - 43.0 °F 71% 29.91 in 10.0 mi West 9.2 mph - N/A   Clear
9:52 PM 50.0 °F - 43.0 °F 77% 29.92 in 10.0 mi Calm Calm - N/A   Clear
10:52 PM 44.1 °F 42.5 °F 43.0 °F 96% 29.94 in 10.0 mi WSW 3.5 mph - N/A   Clear
11:52 PM 45.0 °F - 39.0 °F 80% 29.94 in 10.0 mi Calm Calm - N/A   Clear